Temp
22 22 21 21 21 21 22 22 23 23 22 23 23 23 23 22 22 25 26 27 27 26 25 26 27 27 27 27 26 25 24 24 23 23 22 21 20 20 20 20 20 20 19 18 17 17 17 17 17 16 16 16 16 16 17 18 18 17 16 16 16 16 16 16 17 17 17 17 17 17 17 17 17 17 17 17 17 18 18 18 18 18 18 18 18 18
22 21 20 21 21 22 22 22 22 22 22 22 22 22 22 22 23 25 26 26 27 26 25 26 27 27 28 27 25 25 25 24 23 23 22 21 21 20 20 21 21 20 19 18 17 17 16 17 16 16 16 16 16 18 18 19 18 17 16 16 17 16 15 16 17 17 17 17 17 17 17 17 17 17 17 17 18 18 18 18 18 18 18 18 18 18
20 20 20 21 21 21 22 22 22 21 22 22 22 22 21 22 23 25 26 26 27 27 25 25 26 27 28 27 26 26 25 24 23 23 23 22 21 21 21 21 21 20 20 19 18 17 17 17 17 16 16 16 18 19 18 18 18 17 17 16 17 17 16 16 17 18 18 17 17 18 18 17 17 17 17 18 17 17 18 18 18 18 18 18 18 18
19 20 21 21 21 21 22 22 22 21 22 22 22 21 21 23 23 23 25 26 26 26 25 26 26 26 27 27 28 27 25 25 23 23 23 22 22 22 22 22 22 21 20 19 19 18 17 17 17 16 16 18 19 18 17 18 18 17 17 17 18 19 20 19 18 19 18 18 17 17 17 17 17 17 17 17 17 17 17 18 18 18 18 18 18 18
20 21 22 21 21 22 22 22 22 21 21 22 23 22 22 23 23 23 24 25 26 25 25 26 24 24 26 26 28 28 25 24 23 23 23 22 22 22 22 22 22 21 19 19 19 18 17 17 17 16 16 18 18 16 16 18 18 18 18 19 19 20 21 21 20 20 19 18 17 17 17 17 17 17 17 16 17 17 17 17 18 18 18 18 18 18
20 22 22 22 21 22 22 22 22 21 21 22 23 24 24 24 24 24 24 24 24 23 25 25 21 22 24 25 27 27 24 22 22 22 23 23 23 23 22 21 20 20 19 19 18 16 16 17 17 16 16 17 17 15 16 18 19 19 18 19 19 20 21 20 20 21 20 18 18 17 17 17 16 16 16 16 16 17 17 18 18 18 18 18 18 18
21 22 23 22 22 22 22 21 22 22 21 21 23 25 25 25 24 24 24 23 22 21 24 24 22 21 22 25 26 24 21 20 21 21 21 22 23 24 23 21 20 20 19 18 17 16 16 16 16 16 16 17 17 15 16 18 19 19 19 19 19 19 21 20 20 20 19 18 17 17 17 17 16 16 16 16 17 17 17 18 18 18 18 18 18 18
23 23 23 22 22 22 21 21 22 23 21 22 24 26 25 25 25 24 23 22 22 22 23 24 23 21 21 22 22 21 21 20 20 19 19 18 19 22 23 21 20 19 18 17 16 16 16 16 16 16 17 18 18 16 16 18 20 20 20 20 18 19 21 21 21 20 18 18 17 17 17 16 17 17 16 16 17 17 17 18 18 18 18 18 18 18
23 23 23 23 22 22 22 22 23 23 23 24 25 26 26 25 25 24 23 22 22 22 21 22 23 22 20 19 19 20 21 19 19 18 18 17 17 18 19 18 17 17 16 16 16 16 15 15 16 16 17 17 18 17 16 18 20 20 20 19 17 18 20 21 21 20 19 18 18 17 17 17 17 17 16 16 17 17 17 18 18 18 18 18 18 18
23 24 24 23 22 22 23 24 24 24 24 25 26 26 25 25 24 24 23 22 22 21 21 21 22 21 19 18 18 19 19 19 19 18 17 17 16 16 16 16 16 16 16 16 16 16 15 16 17 17 17 16 16 16 16 17 19 19 19 19 18 18 19 18 19 19 18 18 17 17 17 17 16 16 16 16 16 17 17 18 18 18 18 18 18 18
23 24 25 24 24 24 24 24 24 25 26 26 26 25 24 24 24 24 23 22 21 21 21 21 22 21 20 18 18 18 18 18 18 17 17 16 16 16 16 16 16 16 16 15 16 15 15 16 17 17 16 15 15 15 15 16 16 17 17 17 17 17 17 16 16 17 17 16 16 16 16 16 16 16 16 16 16 17 17 18 18 18 18 18 18 18
23 23 24 25 26 25 25 25 25 26 26 26 25 24 22 22 22 22 21 21 21 20 21 22 22 21 19 18 17 18 18 18 17 16 16 16 16 16 16 16 16 16 15 15 15 15 15 15 15 15 15 15 14 15 15 15 15 16 16 16 16 16 16 16 16 16 16 16 16 16 16 16 17 17 17 17 17 17 17 18 18 18 18 18 18 18
23 23 24 25 26 26 25 24 24 25 25 25 24 22 21 20 21 20 20 20 20 20 21 22 22 20 18 17 17 17 18 17 16 16 16 16 15 15 16 16 16 16 15 15 15 15 15 15 14 14 14 14 14 15 15 15 15 15 16 15 15 16 16 16 16 16 16 16 16 16 16 16 17 17 17 17 17 17 18 18 18 18 18 18 18 18
21 22 23 24 25 26 25 24 22 23 24 24 22 21 21 20 20 20 20 20 20 21 21 22 22 19 17 17 16 16 17 17 16 15 15 15 15 15 15 15 16 15 15 15 14 14 14 14 14 14 14 14 14 14 14 15 15 15 15 15 15 16 16 15 16 16 16 16 16 16 16 16 17 17 17 17 18 18 18 18 18 18 18 18 18 19
20 21 23 24 24 25 25 25 24 24 24 24 23 22 21 21 20 20 20 20 20 20 20 21 21 18 17 17 15 16 17 17 16 16 15 15 15 15 15 15 15 15 15 14 14 14 14 14 14 14 14 14 14 14 14 15 15 14 14 15 15 16 16 16 16 16 16 16 16 16 17 16 16 17 17 18 18 18 18 18 18 18 18 19 19 19
20 21 23 25 25 25 25 25 25 25 23 23 23 22 21 22 21 20 20 20 20 20 20 20 19 18 17 17 16 16 17 17 17 16 16 15 15 15 15 15 15 15 14 14 14 14 14 14 14 14 14 14 14 15 14 14 14 14 15 15 15 16 16 16 17 17 17 17 17 17 17 16 16 16 17 17 18 18 18 18 18 18 19 19 19 19
20 21 24 25 24 25 26 25 25 25 23 22 22 22 22 23 23 21 20 20 20 20 20 18 17 17 17 17 16 16 17 17 17 17 16 16 15 15 15 15 15 14 14 14 14 14 14 13 14 14 15 14 14 15 15 15 15 15 15 15 15 16 16 16 17 18 18 18 18 17 17 16 16 16 17 17 18 18 18 18 19 19 19 19 19 19
21 21 23 24 24 24 25 25 25 25 24 23 21 23 23 22 23 22 20 20 20 20 20 18 17 17 17 17 16 16 17 16 16 16 16 16 15 15 15 14 14 14 14 14 14 14 13 13 13 14 14 14 14 14 14 15 15 15 15 15 16 16 16 16 17 18 18 18 18 17 16 16 16 16 17 17 18 18 18 18 18 18 19 19 19 19
21 21 22 24 24 24 25 24 24 24 25 24 23 24 23 21 21 21 20 20 20 20 19 17 16 16 16 16 16 16 16 16 16 15 15 15 15 14 14 14 13 13 13 13 12 12 13 13 13 13 13 13 14 14 14 15 15 15 15 15 15 16 17 17 17 17 17 17 17 16 16 16 16 16 17 17 18 18 18 18 18 18 19 19 18 18
22 20 21 23 24 24 24 23 22 22 24 24 24 24 23 22 21 21 20 20 20 20 19 17 16 16 16 15 16 16 16 15 15 15 15 14 14 14 14 13 13 12 12 12 12 12 12 12 12 13 13 13 13 13 14 14 14 14 14 14 15 15 16 17 17 17 17 16 16 16 16 16 17 17 17 17 18 18 18 18 18 18 19 19 18 18
21 20 21 22 23 23 23 23 23 23 23 23 22 22 22 22 22 21 21 20 20 21 19 17 17 16 15 15 15 16 15 15 15 14 14 14 14 13 13 13 12 12 12 11 11 11 11 11 11 11 12 12 12 12 13 13 14 14 14 14 15 15 15 16 16 17 16 16 16 16 16 17 17 17 17 17 18 18 18 19 19 19 19 19 18 18
21 20 21 21 22 22 22 23 23 24 23 23 22 22 21 22 21 21 20 20 20 20 19 18 17 16 15 15 15 15 14 14 14 14 14 14 13 13 12 12 12 12 11 11 11 11 11 11 11 11 11 11 11 12 12 12 13 13 14 14 14 15 15 15 15 16 16 16 16 16 17 17 17 17 17 17 18 18 18 19 19 19 19 19 18 18
20 21 21 21 21 22 21 21 21 22 22 22 21 20 21 21 21 21 21 20 20 19 18 17 17 15 15 14 14 14 13 13 13 14 14 13 13 13 12 12 11 11 11 11 11 11 11 10 10 10 10 11 11 11 11 11 11 12 13 13 14 14 14 15 15 15 15 15 16 17 17 16 16 17 16 17 18 18 18 19 19 19 19 18 18 18
20 20 20 20 21 22 21 21 21 21 21 21 19 18 19 20 21 21 21 20 20 18 18 18 16 15 15 14 14 13 13 13 12 12 13 13 13 12 11 11 11 11 11 11 11 10 10 10 10 10 10 10 10 10 10 10 10 11 11 12 12 13 13 14 14 14 15 15 16 16 16 16 16 16 16 17 18 18 18 19 19 19 19 18 18 18
20 19 19 20 20 20 21 21 21 20 19 19 17 17 18 19 20 20 20 20 19 17 17 19 16 15 15 14 13 13 12 12 12 11 12 12 12 12 11 11 10 10 10 10 10 10 10 10 10 10 10 10 10 10 10 10 9 10 10 10 11 11 12 13 14 14 14 15 15 15 16 16 15 15 16 17 18 18 18 19 19 19 19 18 18 18
20 18 18 20 20 20 20 19 19 18 17 17 16 15 16 17 18 19 19 21 20 16 16 17 16 14 14 13 12 12 11 11 11 11 11 10 11 11 10 10 10 10 10 9 9 9 9 9 9 9 9 9 9 9 9 9 9 9 9 10 10 11 12 13 13 13 14 14 15 15 15 15 15 15 16 17 18 18 18 19 19 18 19 18 18 18
19 16 17 19 19 19 18 17 17 17 15 15 15 14 14 15 16 19 20 20 18 15 14 15 15 14 13 12 12 11 10 10 10 10 9 9 9 9 9 9 9 9 9 9 9 9 9 9 9 9 9 9 9 8 8 8 8 8 8 9 10 11 12 13 13 14 14 14 14 14 15 15 14 15 16 16 17 18 18 18 19 18 18 18 18 18
19 17 16 16 16 16 16 15 16 15 14 14 13 13 13 13 15 17 18 18 17 16 15 15 15 14 12 12 11 10 9 9 9 9 8 8 8 8 9 9 8 8 8 8 8 8 8 8 8 9 9 9 8 8 8 8 8 8 8 8 9 10 11 12 13 14 14 14 14 14 14 14 14 14 15 15 16 17 17 18 18 19 18 18 18 18
18 17 16 16 15 15 15 14 14 14 13 12 12 12 12 13 13 14 14 14 15 17 16 14 14 13 11 10 10 9 9 9 8 8 8 8 8 8 8 8 8 8 8 8 8 8 8 7 8 8 8 8 8 8 8 7 7 7 7 8 9 9 10 12 13 14 14 14 14 14 14 14 14 14 14 14 15 15 16 17 17 18 19 18 18 18
17 16 15 15 14 14 14 14 13 13 12 12 12 12 12 12 12 12 13 13 14 15 14 12 12 11 10 9 8 8 9 8 8 8 8 7 7 7 7 7 7 7 7 7 7 7 7 7 7 7 7 8 8 8 8 7 7 7 7 7 8 9 9 11 12 13 14 14 14 14 14 14 14 14 14 14 14 15 16 16 16 18 19 18 18 18
16 15 14 14 13 13 13 13 12 12 12 11 11 11 12 12 11 11 12 12 13 12 11 10 10 9 9 8 8 8 8 8 8 7 7 7 7 7 7 6 6 6 6 6 7 7 7 7 7 7 7 7 7 7 7 7 7 7 7 7 7 8 8 9 11 12 13 14 14 14 14 14 14 14 13 14 14 14 16 16 15 17 18 18 18 18
15 14 14 14 13 12 13 13 12 13 13 12 11 10 11 11 11 11 11 11 12 12 11 11 10 9 8 8 7 7 7 7 7 7 7 6 6 6 6 6 6 6 6 6 6 6 6 6 6 6 7 7 7 7 7 7 7 7 7 7 7 7 8 9 9 10 11 13 13 14 14 13 14 14 13 14 14 14 16 16 14 16 18 18 17 18
15 15 15 15 14 13 13 13 13 15 15 13 11 10 10 11 10 10 10 10 10 11 11 11 10 9 8 8 7 7 6 6 6 6 6 6 6 6 6 6 6 5 5 5 5 5 5 6 6 6 6 6 6 7 7 7 7 6 6 7 6 7 8 8 8 9 9 11 12 13 13 13 13 13 13 14 14 14 15 15 14 15 17 17 17 17
15 15 14 14 14 13 12 13 14 15 14 12 11 10 11 10 10 10 10 9 9 9 9 9 8 8 8 7 6 6 6 6 5 5 6 6 5 5 5 5 5 5 5 5 5 5 5 5 6 6 6 6 6 6 7 7 7 7 6 7 7 7 7 7 8 8 8 10 11 12 12 13 13 13 13 14 14 14 15 14 13 14 17 16 16 17
14 14 14 13 13 12 12 13 14 13 12 10 11 11 11 10 10 9 9 9 9 8 8 8 7 7 6 6 6 5 5 5 5 5 5 5 5 5 5 4 4 4 5 4 4 5 5 5 5 5 6 6 6 6 6 6 7 7 7 7 7 7 7 7 7 7 7 8 9 10 11 11 12 13 13 13 14 13 13 13 12 14 15 16 16 16
14 14 14 14 13 12 12 13 13 12 10 10 11 11 11 11 10 10 9 9 9 9 8 7 7 6 6 6 5 5 5 5 5 5 5 5 5 5 4 4 4 4 4 4 4 4 4 5 5 5 5 5 6 6 6 6 6 6 7 7 7 7 7 7 7 7 7 7 8 9 9 10 11 12 12 13 13 13 13 13 13 13 14 15 15 15
15 16 15 14 12 12 12 11 11 11 10 10 10 10 10 10 10 11 10 8 9 9 8 7 7 7 6 6 6 5 6 6 5 4 5 5 5 5 4 4 4 4 4 4 4 4 5 5 5 5 5 5 6 6 6 6 6 6 7 7 7 7 7 7 6 6 6 7 7 8 9 9 9 10 11 11 12 12 12 12 12 12 13 13 14 13
15 16 16 14 12 11 11 10 10 11 11 10 9 9 10 10 10 11 10 9 8 9 9 8 7 7 6 6 6 6 6 7 5 4 4 5 5 5 5 4 4 4 4 4 4 4 5 5 5 5 5 5 6 6 6 6 6 6 6 6 6 7 7 7 6 6 7 7 7 7 8 9 8 8 9 9 10 10 10 10 10 11 11 12 12 12
14 14 15 14 12 11 12 11 11 11 10 9 9 9 10 10 10 11 10 9 8 8 9 9 8 8 7 7 6 6 7 7 5 4 4 4 4 5 4 4 4 4 4 4 4 4 4 5 5 5 5 5 6 6 6 6 6 6 6 6 6 7 7 7 7 7 7 7 7 7 8 9 9 8 8 8 8 9 9 9 9 9 10 10 10 11
14 13 14 13 12 11 11 10 10 10 9 8 8 9 9 10 10 11 11 10 8 8 9 8 8 7 7 7 7 7 7 6 5 4 5 5 4 5 4 4 4 4 4 4 4 4 4 5 5 5 5 5 5 6 6 6 6 6 6 6 6 6 7 7 7 7 7 7 7 7 7 8 9 9 9 8 8 8 9 9 10 10 10 10 10 10
13 12 12 12 11 10 10 9 9 9 8 8 8 8 9 9 10 11 11 9 8 7 7 7 6 6 6 6 6 6 5 5 5 4 5 5 5 5 5 4 4 4 4 4 4 5 5 5 5 5 5 5 6 6 6 6 6 6 6 6 6 6 7 7 8 8 8 8 8 8 7 7 8 8 9 9 9 9 9 9 10 10 10 10 10 10
12 12 11 11 11 10 10 9 9 9 8 7 8 8 9 10 11 10 9 8 7 7 6 6 6 5 5 5 5 4 4 5 5 4 5 5 5 5 5 5 5 5 5 5 5 5 5 5 5 5 5 6 6 6 6 6 6 6 6 6 6 7 7 8 8 8 8 8 8 8 8 8 7 8 8 8 9 10 9 9 9 10 10 10 9 9
10 11 10 10 10 11 10 9 10 9 8 7 8 9 9 9 9 8 7 7 7 6 6 6 5 5 5 4 4 4 4 4 4 4 4 4 4 4 5 5 5 5 5 5 5 5 5 5 5 5 5 6 6 6 6 6 6 6 6 6 6 7 7 8 8 9 8 8 8 8 8 8 7 8 8 8 8 8 8 9 9 9 9 9 9 8
9 10 9 9 9 10 9 9 9 8 7 7 8 8 7 7 8 7 7 7 6 6 6 5 5 5 5 4 4 4 4 4 4 4 4 4 4 4 4 5 5 5 5 5 5 5 5 5 5 5 6 6 6 6 6 6 6 6 6 6 7 7 8 8 8 9 8 8 8 8 8 8 8 8 8 8 8 8 8 8 8 8 8 8 8 8
9 9 9 8 8 8 8 7 7 7 6 7 7 7 6 7 7 7 7 6 6 6 6 5 5 5 5 4 4 4 4 4 4 4 4 4 4 4 4 4 5 5 5 5 5 5 5 5 6 6 6 6 6 6 6 6 6 6 6 6 7 7 7 8 8 8 8 8 8 8 8 9 8 8 8 8 8 8 8 8 8 8 8 8 8 7
9 9 9 8 7 7 7 7 7 6 6 6 6 6 7 6 7 7 6 6 6 6 6 5 5 5 5 5 5 4 4 4 4 4 4 4 4 5 5 5 5 5 5 5 5 6 6 6 6 6 6 6 6 6 6 6 6 6 6 7 7 7 7 7 8 8 8 8 8 8 9 8 8 8 8 8 8 8 8 8 8 8 7 8 8 7
9 10 9 8 8 8 7 6 7 6 6 6 6 6 6 6 6 6 6 6 6 6 6 6 5 5 5 5 5 5 5 5 5 5 5 5 5 5 5 5 5 5 5 5 5 6 6 6 6 6 6 6 6 7 7 7 6 6 7 7 7 7 7 7 7 7 7 8 8 8 9 8 8 8 8 8 8 8 8 8 8 8 7 7 7 7
9 9 9 8 8 7 7 6 7 7 6 7 7 6 6 6 6 6 6 6 6 6 5 6 6 5 5 5 5 5 5 5 5 6 5 5 5 5 5 6 6 6 6 6 6 6 6 6 6 6 6 6 6 7 7 7 7 7 7 7 7 7 7 7 7 7 7 7 7 8 8 8 8 8 8 8 8 8 8 8 8 8 7 7 7 7
10 9 8 8 7 7 6 6 6 6 6 6 6 6 6 6 6 6 6 5 5 5 5 5 5 5 5 5 5 5 6 6 5 5 5 5 5 6 6 6 6 6 6 6 6 6 6 6 6 6 6 6 7 7 7 7 7 7 7 7 7 7 7 7 7 7 7 7 7 7 8 8 8 8 8 8 7 7 7 7 7 7 7 7 7 7
9 8 8 7 7 6 6 6 6 6 6 6 6 7 7 7 6 6 6 6 5 5 5 5 5 5 5 5 5 5 5 5 5 5 5 5 5 6 6 6 6 6 6 6 6 6 6 6 6 6 6 6 6 7 7 7 7 7 7 7 7 7 7 7 7 7 7 7 7 7 7 7 8 8 8 8 7 7 6 6 6 6 6 6 6 6
9 8 8 8 7 7 7 7 7 7 6 6 6 7 7 7 7 6 6 6 5 5 5 5 5 5 5 5 6 5 5 5 5 5 5 5 6 6 6 6 6 6 6 6 6 6 6 6 7 7 7 7 7 7 7 7 7 7 7 7 7 7 7 7 7 7 7 7 7 7 7 7 7 7 7 7 7 7 7 7 6 6 6 5 6 6
Height
753 763 768 769 769 768 767 767 765 765 768 771 772 771 770 771 768 757 749 740 736 746 754 751 750 750 748 748 747 746 745 747 752 755 755 756 757 757 758 758 756 757 757 756 757 758 760 764 767 771 776 781 783 782 780 780 783 786 787 788 788 790 793 796 796 797 799 799 799 800 801 802 803 803 804 805 805 807 808 810 811 813 814 814 815 816
756 768 769 764 764 762 762 764 764 766 769 771 773 773 770 770 766 753 746 740 734 743 754 751 750 750 746 746 749 746 746 749 752 754 755 756 756 757 757 755 753 755 756 755 758 761 763 766 769 773 776 777 775 770 769 770 774 781 784 786 788 789 790 792 796 799 799 799 798 798 798 799 801 802 802 803 804 806 808 809 811 812 813 814 815 816
766 769 763 759 761 761 761 762 765 769 770 772 774 774 772 767 762 753 744 740 738 743 753 752 750 749 745 744 746 745 746 747 747 747 749 751 754 755 754 751 751 754 756 756 759 763 766 768 769 771 772 770 767 765 766 768 773 779 780 781 786 790 791 794 797 799 798 798 797 797 797 798 799 801 802 803 805 806 808 809 811 812 813 814 814 816
772 765 755 755 758 761 762 761 764 770 770 771 773 775 773 765 764 762 751 745 743 746 752 751 752 752 748 745 742 741 744 745 745 744 743 746 748 748 746 745 746 750 754 756 759 762 764 766 766 766 766 765 765 766 768 769 773 776 776 777 780 782 786 792 796 797 798 798 797 797 797 797 799 800 802 803 805 807 808 809 811 812 813 814 815 816
765 753 748 753 757 759 762 762 765 771 772 770 767 769 769 761 761 763 757 750 747 749 749 752 761 760 753 754 747 740 743 747 747 746 747 747 746 744 743 744 746 752 757 759 762 764 762 761 762 762 763 764 765 767 768 769 772 775 775 776 775 773 776 783 786 788 793 794 794 795 796 798 799 800 801 802 804 806 807 809 810 812 813 814 815 816
759 748 746 753 756 758 762 764 764 768 773 771 763 758 757 756 756 758 759 758 761 763 753 755 776 777 762 759 752 746 753 758 754 752 752 751 750 751 752 753 755 760 762 762 765 769 767 764 764 765 766 766 766 767 768 770 772 774 775 775 773 769 771 776 779 781 784 786 788 789 792 794 796 798 799 799 801 803 806 808 810 811 812 814 815 815
751 744 744 751 755 757 762 763 759 762 772 772 759 748 748 750 753 756 760 765 772 773 760 756 776 785 770 759 758 760 767 768 763 761 759 756 754 751 753 758 759 760 761 761 764 769 772 772 772 772 770 767 767 768 770 772 772 773 774 774 773 769 768 772 776 779 781 782 784 785 787 789 791 794 796 797 800 802 804 807 809 811 812 814 815 815
742 744 746 748 753 757 763 762 754 755 768 767 750 744 747 748 751 755 761 769 770 767 764 759 764 777 779 775 774 770 771 774 772 770 768 765 761 754 751 757 759 760 761 762 765 768 771 772 772 773 771 769 767 769 771 772 772 772 772 773 774 772 768 768 771 776 779 781 783 784 786 787 789 791 794 796 799 801 804 806 808 810 812 813 814 815
737 743 746 747 753 759 758 753 746 748 759 755 742 742 744 744 750 753 758 767 767 767 773 767 760 777 795 794 785 775 775 783 783 779 776 772 769 764 760 761 762 762 762 763 765 768 771 772 773 773 773 772 769 768 769 770 770 772 772 773 774 773 769 767 767 771 776 780 782 783 785 787 789 792 794 796 798 801 803 805 807 809 811 812 814 815
736 736 736 741 751 753 747 741 739 744 749 743 738 742 743 745 750 751 757 762 765 773 779 771 763 780 805 807 793 787 789 791 790 787 784 779 775 771 769 768 767 766 765 765 765 767 769 770 770 770 772 776 775 770 770 770 770 771 772 774 774 774 773 773 772 772 775 779 783 785 787 789 792 794 796 798 800 801 803 804 806 808 810 811 813 814
735 730 730 734 739 739 736 736 736 737 738 736 739 744 749 754 753 754 762 761 769 783 778 769 764 774 802 813 802 798 797 794 794 793 789 784 780 777 774 773 772 771 770 768 767 766 767 767 767 765 768 778 781 778 777 776 775 775 774 775 777 778 780 782 783 782 780 782 785 788 790 792 794 795 797 799 801 802 803 804 806 807 809 810 812 813
735 734 733 728 727 728 731 735 734 731 732 736 743 750 759 767 764 766 770 767 783 793 776 766 767 777 803 814 805 800 797 795 795 795 793 790 786 783 779 777 775 774 774 773 772 771 771 771 772 768 767 775 780 780 782 782 782 781 779 779 779 780 782 783 786 788 787 785 785 787 790 793 794 796 797 799 801 803 804 805 806 808 809 810 811 813
740 736 733 726 722 723 730 738 739 736 735 741 750 758 771 781 781 784 786 784 791 789 773 767 771 790 811 812 805 801 798 798 798 796 796 792 789 787 783 781 779 778 779 779 778 777 776 777 777 772 769 773 777 779 781 782 785 787 786 784 782 781 781 783 785 787 788 788 786 788 790 792 794 795 797 798 800 802 804 805 807 808 809 810 811 812
748 739 732 730 727 721 726 739 747 746 743 747 754 762 775 786 794 799 800 799 794 783 775 769 772 799 815 809 808 807 800 800 799 798 797 793 791 789 786 784 783 783 784 783 782 780 778 777 778 776 774 776 780 783 782 781 784 789 790 788 786 784 783 784 785 786 788 789 788 789 790 792 794 795 797 798 799 802 803 805 807 808 809 810 811 812
759 753 737 732 731 723 724 731 737 741 742 746 750 756 766 775 786 795 795 795 793 785 779 774 780 805 816 810 810 806 799 799 797 797 797 794 791 789 787 786 785 785 785 785 784 782 780 780 780 780 778 779 782 784 784 781 782 787 791 790 788 786 786 786 787 787 788 789 789 790 791 792 794 795 796 798 799 801 802 804 806 807 809 810 811 813
758 755 732 724 725 721 725 726 725 735 745 747 748 755 760 759 766 781 786 785 787 786 786 789 798 808 809 807 807 802 800 799 796 795 796 795 793 789 788 789 788 788 787 786 786 785 785 784 783 783 782 784 785 785 784 782 783 786 788 789 787 787 788 788 788 788 789 790 790 790 791 792 794 795 796 797 799 801 802 804 805 807 808 810 812 813
754 750 728 722 726 720 722 725 722 732 745 749 752 754 752 747 751 770 786 787 786 789 792 800 810 811 808 809 807 803 802 801 799 798 798 797 795 792 792 792 792 792 790 789 789 789 788 787 786 785 784 785 786 786 784 783 783 783 785 786 785 784 786 786 786 787 788 789 789 788 789 791 794 795 796 797 798 800 802 804 805 806 808 809 811 813
748 749 730 723 730 723 718 722 722 725 733 746 755 749 746 750 752 762 781 792 795 796 797 805 813 814 814 815 812 808 806 805 804 802 801 799 797 797 797 795 795 795 794 793 792 791 791 790 789 788 786 786 785 785 784 782 781 780 782 784 782 780 781 782 783 784 786 786 786 787 788 789 792 795 796 797 798 799 801 803 805 806 808 809 811 813
742 752 738 724 728 723 717 725 733 730 727 735 742 738 745 763 766 766 777 789 796 798 802 813 817 815 817 818 815 812 809 808 807 805 803 803 801 802 802 800 800 799 798 797 796 795 794 792 791 790 789 787 785 785 784 783 782 780 780 781 780 779 778 779 781 783 786 788 787 787 788 789 791 794 796 797 798 799 800 802 805 806 808 809 811 813
738 752 747 729 724 724 725 734 743 743 735 733 736 738 745 755 761 765 770 776 784 793 804 816 819 817 818 816 813 811 809 808 808 808 807 806 806 806 806 805 804 803 802 801 800 799 797 796 795 792 791 789 787 786 785 784 784 782 781 781 780 779 778 779 780 782 785 788 787 786 787 789 791 793 795 796 797 798 799 802 804 806 807 809 811 813
737 751 751 736 728 731 737 738 739 741 740 741 745 747 748 747 750 758 765 768 771 780 797 811 818 818 815 811 811 810 808 807 808 809 810 809 808 808 808 808 807 806 805 804 802 801 800 799 798 796 794 792 789 787 786 785 785 783 782 781 779 778 778 779 780 782 784 786 786 785 785 786 788 790 793 794 795 796 798 800 803 805 807 809 811 812
740 746 748 743 738 739 741 735 730 731 733 738 744 748 749 748 752 763 773 773 768 773 787 800 813 819 814 810 811 810 809 809 809 810 810 811 810 810 810 810 809 809 807 806 805 803 802 801 801 799 797 795 792 789 788 787 785 784 784 782 781 780 781 781 782 782 783 783 783 782 781 782 784 787 791 793 794 795 796 798 801 803 806 808 811 812
736 741 745 745 741 739 739 735 732 731 731 736 745 751 750 749 752 761 771 773 772 780 788 795 809 817 813 811 811 811 812 812 812 811 811 812 812 812 812 811 811 810 809 808 807 806 806 804 803 802 800 797 794 791 790 788 786 785 784 784 784 784 784 784 783 783 782 781 780 779 779 781 783 786 790 792 794 795 796 797 799 802 805 808 810 812
735 743 748 747 740 736 736 735 733 735 737 744 754 756 753 752 751 752 759 764 772 786 789 794 812 818 812 811 812 812 814 813 814 814 813 814 814 814 814 813 812 812 810 809 809 808 808 806 804 803 801 799 797 794 792 790 788 787 786 786 787 787 786 785 783 782 781 780 779 778 779 781 783 786 790 792 793 794 795 796 798 800 804 807 810 811
739 750 752 753 754 750 746 745 745 747 751 758 765 765 759 756 753 752 757 761 773 791 789 789 809 816 810 812 814 814 816 817 818 819 816 817 816 816 816 815 814 813 812 811 811 811 810 808 807 805 803 802 799 796 794 791 789 787 785 785 785 785 785 783 782 781 780 779 779 779 780 781 783 787 790 791 791 792 793 794 796 799 802 806 809 811
742 755 754 753 761 763 763 764 763 763 765 767 772 773 768 764 759 757 759 761 775 794 795 793 807 814 812 815 817 818 820 821 822 823 821 821 820 819 818 818 818 816 815 815 814 814 813 812 810 809 807 804 801 798 795 791 789 786 784 782 780 780 779 779 779 779 779 779 778 778 779 780 781 785 788 789 789 790 792 793 795 798 801 804 807 810
745 760 758 754 758 763 768 772 768 767 774 778 782 782 778 774 767 760 760 765 777 794 802 801 802 809 815 819 821 824 825 826 828 828 827 826 825 823 822 822 822 820 819 818 817 816 816 814 813 811 809 807 804 801 797 794 791 788 786 783 781 779 777 776 776 776 777 777 777 777 778 779 780 782 785 787 787 788 789 791 793 796 800 803 806 809
747 762 764 762 765 768 772 775 770 771 781 787 789 789 787 782 774 768 770 776 779 787 802 805 800 808 820 823 825 829 829 831 833 832 832 831 829 827 826 825 824 823 822 820 819 819 818 817 816 813 811 809 806 803 800 797 794 791 788 786 783 781 779 776 776 775 776 775 773 773 776 779 780 782 784 786 787 787 788 790 792 795 798 802 805 808
753 766 769 768 774 777 777 779 778 780 788 792 792 794 793 789 786 785 789 791 784 780 792 802 804 814 825 828 830 832 832 834 835 834 834 833 831 830 828 828 826 825 824 823 821 821 820 819 817 815 813 810 808 805 802 799 797 794 791 788 785 782 779 777 776 775 774 772 769 770 773 776 779 781 783 786 788 788 788 791 793 794 797 801 804 807
757 772 775 773 781 786 784 784 783 784 791 797 798 798 797 796 796 796 797 796 791 788 794 804 813 823 831 834 835 835 835 836 836 835 835 834 833 832 831 830 828 827 826 825 823 822 821 820 819 816 814 812 810 808 805 803 800 797 794 791 787 784 781 778 776 774 772 770 770 770 772 774 776 778 781 784 788 790 789 792 795 794 796 800 803 805
758 775 779 775 784 793 792 790 789 789 794 802 805 804 802 802 803 804 803 801 800 804 811 815 822 831 835 837 838 838 838 838 837 837 837 836 835 834 833 832 830 829 828 826 825 824 822 822 820 818 817 815 813 811 809 806 804 800 798 794 791 788 784 780 778 776 774 772 772 771 772 774 775 776 780 783 788 790 789 792 796 795 795 799 802 803
760 774 778 775 786 797 794 791 792 789 789 799 809 812 809 809 811 812 813 811 807 810 814 816 822 832 837 839 840 841 841 841 841 840 839 838 838 837 836 835 833 832 831 829 827 825 824 824 823 821 820 818 816 814 812 809 806 803 800 798 795 791 787 784 780 778 776 774 773 773 773 774 773 775 780 782 786 789 788 791 796 796 794 797 800 802
764 770 775 776 787 797 795 792 790 782 781 797 813 818 816 815 816 816 818 818 815 812 814 819 826 833 837 838 841 844 845 845 845 844 842 842 841 840 839 838 837 836 834 832 830 828 828 827 826 825 823 821 819 816 815 812 809 807 804 801 798 794 789 786 783 781 778 776 775 775 774 773 772 774 779 781 785 788 787 790 796 796 793 796 800 802
765 768 775 779 785 794 797 795 789 785 793 809 818 817 816 818 819 820 823 825 823 821 824 829 833 836 838 840 843 846 847 847 848 847 846 845 845 844 843 841 840 839 837 835 834 832 831 830 828 827 825 823 821 819 817 815 812 810 807 803 799 795 791 789 786 784 782 779 777 776 775 774 773 775 778 781 784 787 786 790 796 795 792 796 800 802
768 770 776 782 786 794 799 795 791 798 812 819 818 816 816 818 819 822 827 829 828 829 832 835 838 840 842 844 845 847 848 849 850 849 848 848 848 847 846 845 844 842 840 838 837 835 834 832 830 829 827 825 823 820 818 817 814 811 808 804 801 798 795 792 789 787 785 783 781 779 778 776 775 776 779 781 784 786 787 792 796 794 793 797 799 801
768 770 775 782 789 795 800 796 795 808 819 819 818 818 817 817 818 819 827 832 831 831 834 837 840 842 843 845 846 847 848 849 850 851 851 851 850 849 849 848 846 845 843 841 840 839 837 835 834 832 830 828 825 823 821 819 816 813 809 806 804 801 798 795 793 791 789 786 785 783 782 780 778 778 780 781 784 786 789 794 796 795 795 798 799 802
763 765 770 781 791 795 803 808 810 815 820 820 821 822 819 820 819 818 827 836 835 832 834 838 841 842 843 845 845 845 846 847 851 854 854 853 852 851 851 850 848 847 845 843 842 841 839 838 836 835 833 830 827 825 823 821 818 815 811 809 807 805 802 799 797 796 793 790 789 788 786 785 783 781 782 784 785 787 790 794 796 797 799 799 800 803
762 762 763 776 793 798 804 814 817 815 817 821 824 823 820 820 819 818 825 836 837 833 834 836 839 842 844 844 845 845 844 845 852 857 856 854 854 852 852 852 850 849 847 845 844 843 841 840 839 837 835 832 829 828 826 823 820 817 814 812 810 808 805 803 802 800 797 795 794 792 791 790 788 786 786 787 788 790 793 796 797 799 801 801 802 804
765 767 765 775 793 799 799 807 813 814 818 823 825 824 821 819 819 818 822 833 838 835 833 834 837 839 841 842 843 844 843 846 853 858 857 855 855 854 853 853 851 850 849 847 846 845 843 842 840 838 836 834 832 830 828 826 822 819 817 816 814 811 809 808 807 805 803 801 800 797 795 794 794 792 791 791 792 794 797 799 800 801 802 803 805 806
770 773 774 779 791 796 800 810 818 820 824 827 827 824 821 819 819 817 818 829 837 836 833 835 838 838 839 839 841 843 844 847 853 857 856 856 856 855 854 854 853 852 850 849 848 846 845 843 842 840 838 836 835 833 831 829 825 822 821 819 817 815 814 814 813 810 808 807 804 802 800 798 797 797 797 797 798 799 801 803 804 804 805 807 808 809
779 782 784 789 797 802 807 817 824 825 827 829 827 825 823 820 818 818 822 830 837 837 837 838 840 841 841 840 842 846 848 849 852 856 856 856 856 855 855 855 854 853 851 851 850 848 846 844 843 842 840 839 838 836 834 832 828 825 824 822 820 819 819 818 817 815 813 810 808 806 804 802 802 801 802 803 803 804 805 806 807 808 809 810 811 812
786 789 791 795 800 804 810 819 824 825 828 829 827 824 822 820 820 824 830 834 836 838 840 841 842 844 844 845 846 849 851 852 854 856 857 857 856 856 856 855 855 854 853 852 851 849 847 846 845 844 843 841 840 839 837 834 831 829 827 824 823 824 823 821 819 818 816 814 812 810 809 808 807 806 806 807 807 808 809 810 811 812 813 813 814 814
795 797 801 805 804 803 810 816 818 821 827 828 825 824 824 824 826 831 835 836 838 840 842 844 846 846 847 849 851 853 854 855 856 857 858 858 858 857 857 856 856 855 854 853 852 850 849 848 847 846 845 843 842 841 839 837 834 833 830 828 828 828 826 824 822 820 819 817 816 814 813 813 812 811 811 812 811 811 812 813 815 816 817 817 816 817
801 800 805 812 812 809 815 821 822 826 830 828 825 827 830 830 831 832 835 838 841 843 843 845 848 849 849 852 854 856 857 858 859 860 860 860 859 859 858 858 857 856 856 854 853 852 850 849 848 847 846 845 844 844 842 839 837 836 834 832 832 830 828 827 825 823 821 820 819 818 817 816 816 815 815 815 815 814 814 815 817 818 819 820 819 819
804 802 801 809 817 819 823 828 830 832 833 829 829 832 833 833 833 833 835 839 842 844 845 847 849 851 852 853 854 856 858 859 860 861 861 861 861 860 860 860 859 858 857 856 855 854 852 851 850 848 847 847 846 845 844 842 840 838 837 836 835 832 830 829 828 826 824 823 822 821 820 820 819 819 818 818 818 818 817 818 818 819 821 822 822 822
807 804 801 811 821 823 826 832 833 834 835 833 833 834 834 835 836 836 838 841 843 845 846 847 849 852 853 854 855 857 859 860 860 861 861 861 861 860 861 861 860 859 859 858 857 856 854 853 852 850 849 849 848 847 846 844 842 841 839 838 837 835 833 832 830 829 828 827 826 825 824 823 822 822 822 822 822 821 821 821 821 822 823 824 824 825
807 803 804 813 819 821 829 836 835 835 837 836 836 837 837 838 839 839 841 843 845 846 848 849 850 852 853 855 856 858 859 860 860 861 861 861 861 861 860 860 860 860 860 860 859 858 857 855 854 853 852 851 850 849 848 846 845 843 841 840 839 837 836 834 832 831 831 831 830 829 827 827 826 825 825 825 825 824 824 825 825 825 825 826 827 827
807 806 809 816 820 824 832 837 836 836 837 837 837 839 840 841 842 843 843 845 846 847 849 850 851 853 854 855 857 857 859 860 860 860 861 861 861 861 861 861 861 861 861 861 860 860 859 857 856 855 853 852 851 851 850 848 847 845 844 842 841 839 838 836 835 834 834 834 833 832 832 830 829 828 828 828 827 827 827 827 827 827 828 829 830 830
804 809 813 819 826 832 836 838 838 839 841 841 840 841 842 843 844 845 846 847 848 849 851 851 853 854 854 855 856 857 858 859 859 860 861 861 861 862 862 862 862 862 861 861 861 860 860 859 858 856 855 854 854 853 852 850 849 847 846 845 844 842 840 839 838 836 836 836 835 835 834 834 832 831 831 831 830 830 830 830 830 830 831 832 833 834
808 815 818 821 828 834 837 837 836 837 842 845 843 843 844 845 845 847 848 849 850 851 852 853 854 855 855 856 856 857 858 859 860 860 861 861 862 862 862 862 862 862 862 862 861 861 860 859 859 858 857 856 855 854 853 852 850 849 848 847 846 845 843 842 841 840 839 839 838 837 837 836 835 834 834 834 833 833 833 833 833 833 834 835 835 836
810 816 817 819 824 829 832 833 833 835 840 844 843 843 845 846 846 848 850 850 852 853 853 854 855 856 857 857 857 858 859 860 861 861 862 862 862 862 862 862 862 863 863 862 862 862 861 860 860 859 858 857 856 855 854 853 852 851 850 849 848 847 846 844 843 842 841 841 841 840 839 839 838 838 837 837 836 836 835 836 836 837 837 837 838 838
Wind_Speed
3 2 2 4 6 6 6 6 8 8 4 3 4 4 5 5 6 6 8 8 8 8 6 9 8 7 7 5 6 4 5 8 6 4 3 4 4 6 6 6 6 5 4 8 15 19 18 18 20 22 21 19 18 17 16 13 19 26 18 12 22 27 23 25 29 28 26 24 24 23 22 22 21 20 20 19 20 19 19 19 19 18 17 18 18 16
4 4 7 7 8 8 7 7 7 6 4 5 4 5 7 5 6 8 8 5 3 5 4 7 7 7 7 4 4 3 7 8 9 8 7 7 6 6 7 8 7 5 4 7 11 13 14 14 17 20 22 23 23 24 23 21 26 26 17 17 21 21 24 29 28 27 27 27 27 27 26 25 23 21 20 19 20 19 19 19 19 18 17 18 17 16
2 5 9 9 8 7 6 7 7 5 4 5 4 4 6 4 4 8 6 3 4 3 3 4 7 7 8 4 5 4 7 6 10 13 12 11 8 7 9 9 7 6 6 7 8 9 13 16 19 23 26 27 26 26 24 22 25 23 19 22 20 12 18 27 25 26 29 28 26 25 26 26 24 21 20 19 19 18 18 18 18 18 18 18 18 16
4 6 10 9 7 6 7 7 5 4 4 4 4 4 6 5 2 4 5 7 6 1 3 3 3 4 6 5 6 3 5 3 8 13 12 11 12 13 12 10 9 9 8 8 7 10 16 20 22 26 30 31 27 24 22 21 23 24 23 24 25 23 23 25 25 24 26 26 24 23 23 24 22 20 19 17 17 18 18 18 18 18 18 18 18 17
7 7 6 7 7 7 7 7 5 4 4 4 5 6 5 5 4 4 2 7 7 4 2 6 4 5 5 6 7 5 3 5 3 7 6 6 8 8 8 7 6 2 4 5 5 6 14 19 23 27 30 31 27 24 25 25 24 27 28 28 33 37 34 32 31 26 25 27 27 23 21 21 20 18 17 16 17 18 19 19 18 18 17 17 18 16
9 7 5 6 8 8 7 7 6 6 4 4 5 8 7 6 5 2 2 5 6 5 2 5 4 5 6 5 7 6 8 10 7 3 2 3 3 4 4 3 4 7 8 8 8 5 5 11 16 21 24 27 24 23 27 27 26 29 31 34 39 40 37 37 36 31 31 33 33 28 24 24 21 19 19 19 19 20 20 19 18 18 17 16 16 16
6 6 7 8 9 9 8 8 6 7 5 3 6 7 6 2 3 3 3 5 2 2 3 3 5 3 5 6 7 6 10 10 10 9 8 7 4 1 1 4 6 6 7 9 10 7 5 5 8 11 17 22 21 23 27 27 26 30 33 36 39 39 40 38 35 33 34 34 33 32 30 28 26 23 22 22 22 21 20 19 19 18 17 16 15 15
5 7 8 9 8 8 7 7 6 9 7 4 6 5 2 2 4 4 2 3 3 2 4 3 5 2 3 6 8 6 10 11 12 13 12 11 9 4 4 7 6 6 7 8 9 8 6 6 7 9 14 19 20 23 27 28 29 32 34 36 36 36 39 38 36 34 34 33 33 32 30 29 28 26 24 24 23 21 20 19 19 18 17 16 15 14
4 8 9 9 8 6 6 8 8 10 6 6 7 5 3 3 3 3 2 3 2 2 4 6 3 4 2 6 9 7 10 11 11 11 12 12 12 9 7 8 8 8 8 8 9 8 6 7 8 8 9 12 17 25 29 31 33 32 33 34 31 32 37 38 37 36 35 35 35 33 31 28 27 25 23 24 23 21 20 19 18 18 17 16 14 14
4 7 9 8 7 6 9 10 8 9 6 6 5 4 1 2 2 3 3 3 2 4 2 7 1 4 1 5 7 6 7 7 7 8 10 11 11 10 9 8 8 8 7 8 10 9 9 12 13 13 9 11 13 21 28 31 34 33 33 33 30 30 31 30 31 35 35 33 31 28 26 24 22 20 19 20 21 21 20 19 18 18 17 16 16 15
5 5 4 5 6 7 9 8 8 10 7 4 3 2 3 5 4 4 3 4 4 3 5 7 2 6 2 4 5 5 5 5 4 5 8 10 11 10 8 7 7 5 5 6 7 7 10 15 17 18 14 6 7 3 6 14 22 27 29 29 26 21 16 14 17 22 27 26 24 20 19 20 19 18 17 18 18 19 20 19 19 19 18 17 17 16
5 4 3 3 5 6 6 4 4 6 6 6 4 2 1 4 4 4 5 4 3 2 7 6 2 8 4 1 3 6 8 8 6 6 8 9 10 10 9 9 8 7 5 5 5 4 5 3 3 9 12 5 3 5 3 3 7 13 17 17 15 11 9 8 10 14 17 20 20 19 17 18 19 19 18 18 18 19 19 19 20 20 19 17 16 16
4 5 5 4 3 5 7 3 1 2 4 6 5 5 3 1 2 1 3 1 2 4 6 5 2 6 3 1 5 9 11 10 8 7 8 9 10 10 10 10 9 8 7 6 5 4 4 4 5 7 11 8 6 3 5 4 7 9 7 6 3 3 5 5 6 10 13 14 16 17 18 18 18 19 19 18 19 19 19 20 21 21 19 18 18 20
4 5 4 3 3 2 7 6 2 1 2 4 4 5 4 2 2 0 3 0 1 5 5 3 2 4 2 2 5 6 10 9 7 7 8 9 10 10 10 10 8 7 7 6 6 5 5 6 8 11 13 10 7 3 3 6 7 14 12 7 7 6 2 1 4 7 8 10 14 16 16 17 18 19 20 19 18 19 20 21 22 21 20 20 22 23
2 4 3 3 3 2 5 7 7 5 3 3 4 5 5 4 4 3 2 2 3 4 5 4 1 3 3 2 2 1 9 10 8 7 7 8 10 8 9 9 8 7 7 6 6 7 7 9 11 13 14 11 6 5 6 8 8 10 15 11 6 6 4 3 3 5 6 6 11 15 15 16 18 20 20 19 18 19 21 22 22 21 20 22 23 22
4 4 7 4 3 5 6 4 5 7 3 3 3 5 3 4 5 3 3 5 4 1 2 2 3 2 3 4 1 2 8 10 9 9 8 9 10 9 10 9 8 8 8 7 7 7 8 10 12 11 11 9 3 3 7 8 8 8 10 5 1 5 6 5 2 4 6 6 9 15 18 17 18 19 20 20 19 20 21 21 21 20 21 24 23 21
3 4 8 1 3 5 7 6 4 6 4 1 2 2 3 5 8 4 2 1 3 2 2 1 4 2 3 4 4 5 8 9 10 11 10 9 10 11 10 8 7 7 7 8 7 6 7 9 10 10 9 6 4 4 3 2 3 6 7 5 5 2 3 6 7 8 12 14 14 19 22 20 18 19 20 21 21 21 21 19 19 21 24 25 23 22
4 3 7 1 4 6 5 7 4 4 6 4 2 4 1 3 4 4 2 1 3 2 3 1 5 4 3 2 3 5 8 9 9 10 11 10 11 11 10 9 10 10 10 10 10 9 10 11 11 11 11 8 4 2 3 3 1 2 3 6 10 10 10 10 11 12 16 20 21 22 22 21 20 19 19 20 21 22 21 18 20 24 25 24 23 23
3 1 7 2 5 4 2 5 1 3 1 5 5 4 4 3 1 1 2 2 2 3 1 3 2 1 2 2 1 3 6 9 9 10 11 11 11 10 9 10 11 11 10 10 10 10 11 14 16 15 14 12 9 5 4 3 2 0 2 6 10 14 15 14 12 12 15 18 21 21 20 19 19 18 18 20 21 23 20 18 23 26 24 23 24 22
2 2 4 6 1 2 3 3 2 3 4 1 2 1 2 3 3 2 3 4 4 3 2 2 2 1 2 2 1 2 5 8 9 9 9 10 10 8 8 8 9 9 9 9 9 9 11 16 20 20 19 19 18 13 8 4 2 1 3 8 12 14 15 14 12 12 13 15 18 20 19 18 18 18 18 20 22 23 21 20 24 26 24 24 25 23
2 3 3 6 5 3 1 2 6 6 3 2 2 2 2 1 1 2 1 2 4 4 3 3 0 3 2 1 2 4 5 8 9 8 8 8 9 9 8 8 8 8 8 8 8 8 10 15 19 21 21 21 21 20 16 12 8 3 2 9 12 13 13 13 11 12 13 15 17 18 19 19 18 19 19 21 23 23 22 21 24 25 25 26 26 25
3 3 3 3 3 1 1 1 2 6 6 6 4 3 4 3 2 2 0 2 2 4 4 5 3 3 0 2 2 5 7 7 7 8 8 9 9 9 9 9 8 8 8 8 9 9 12 16 18 19 20 20 21 21 20 18 15 11 8 5 4 4 6 7 8 9 12 16 17 18 19 20 20 20 20 21 23 23 23 23 24 25 27 28 27 26
3 4 3 2 2 3 3 8 9 5 4 7 3 1 1 3 3 5 3 3 2 3 2 5 3 2 1 2 3 6 7 7 7 7 7 8 9 9 9 9 8 7 8 8 9 10 12 15 17 17 18 19 19 20 21 20 19 18 16 14 11 9 7 6 9 10 10 14 17 18 19 19 19 20 21 21 22 23 24 25 25 27 29 29 27 25
2 3 2 2 4 2 3 8 11 9 7 6 3 3 2 1 3 5 5 3 3 2 2 4 2 2 3 3 5 7 7 8 8 7 7 7 7 9 10 8 8 7 8 9 10 11 13 15 17 17 17 18 18 19 20 20 20 20 20 19 16 13 11 8 8 11 11 13 16 17 18 18 17 20 21 21 21 23 26 26 26 28 30 29 27 25
1 1 3 2 2 3 2 3 6 7 5 4 3 6 5 3 3 3 2 4 4 1 2 5 2 2 3 4 6 7 8 9 9 8 8 7 7 8 9 8 8 7 9 11 11 11 13 14 16 16 17 17 18 19 19 21 22 23 23 23 21 17 14 11 8 8 9 10 13 16 17 17 17 19 21 22 23 25 28 28 28 29 30 29 27 25
3 2 3 5 4 4 3 1 1 2 2 3 4 8 9 7 5 2 3 4 3 1 3 4 3 3 5 7 7 8 9 9 9 9 8 8 8 8 8 8 8 7 9 11 10 10 11 12 14 16 17 18 19 20 20 22 24 26 28 28 26 24 21 17 12 9 9 8 11 15 17 19 19 22 24 24 25 28 29 29 29 30 30 29 27 26
4 3 3 6 6 5 4 2 2 2 4 4 6 10 10 8 6 3 4 3 4 4 4 2 6 8 7 8 8 8 8 8 8 8 8 7 7 8 8 8 7 7 8 9 9 9 10 11 13 16 17 18 19 20 21 22 24 26 28 30 29 26 22 20 16 12 11 10 11 15 17 20 21 24 26 25 27 30 30 31 32 31 31 29 26 26
5 4 6 8 9 6 6 5 5 8 9 7 7 10 11 10 9 8 5 1 4 6 2 1 8 10 6 7 8 7 7 7 7 7 7 6 6 7 7 7 8 8 8 8 9 10 10 10 11 14 17 18 20 21 22 23 25 27 29 30 30 26 21 19 16 13 11 11 15 18 16 17 20 24 24 23 25 28 29 32 33 32 30 28 26 26
6 3 5 8 11 9 8 9 11 13 11 9 11 10 11 13 13 10 5 2 1 5 6 8 10 9 6 8 8 7 7 6 6 6 5 5 6 7 7 8 9 9 9 10 10 10 10 10 10 13 17 18 20 22 22 22 24 26 29 30 30 28 23 18 15 10 11 14 17 19 15 14 20 24 24 22 23 25 27 29 29 30 29 26 26 27
4 3 3 8 10 8 6 6 10 13 12 11 12 10 9 11 13 11 8 7 7 8 9 12 13 9 6 6 7 7 7 5 5 6 6 6 8 8 7 8 9 10 10 10 10 10 9 10 12 15 17 19 21 22 22 23 23 24 27 29 30 29 25 19 14 9 11 16 15 16 16 16 20 24 23 23 23 24 28 27 24 27 28 25 26 28
3 1 1 4 7 5 4 6 9 12 13 12 12 11 10 10 11 10 8 7 9 10 11 12 12 8 5 6 8 7 5 5 6 7 7 8 8 8 8 9 9 10 10 10 10 10 10 11 13 16 17 18 20 21 21 22 23 25 27 28 28 27 25 22 17 11 7 14 17 17 17 17 20 23 22 22 24 24 28 26 20 24 29 27 26 27
3 2 1 3 5 1 0 5 9 11 14 13 11 11 11 8 7 7 6 5 5 8 11 10 7 4 4 5 8 7 7 8 8 7 7 7 8 9 8 9 10 10 10 10 11 11 11 11 13 15 16 17 19 20 20 21 23 25 26 26 26 25 26 25 22 20 13 4 13 17 19 19 21 24 23 22 24 25 27 24 20 24 30 28 27 28
3 4 2 3 4 2 3 2 3 5 8 7 5 7 6 4 5 6 7 9 7 4 6 4 3 4 5 6 7 8 8 9 8 7 7 7 8 9 8 8 9 9 9 10 10 11 10 11 13 15 16 17 18 18 19 19 21 22 23 24 26 26 27 28 27 25 22 13 3 8 15 19 22 24 24 23 23 24 27 25 22 26 31 29 28 27
3 5 4 2 3 4 4 3 2 4 3 1 3 4 3 5 8 9 8 9 9 7 6 5 5 6 6 6 8 8 8 8 8 7 7 7 6 6 7 8 8 8 9 9 10 10 11 12 14 15 16 17 17 17 18 19 19 19 21 24 27 29 29 30 30 28 27 22 14 8 7 15 22 24 23 23 23 24 26 25 22 27 31 30 29 29
5 5 4 2 3 3 3 2 1 3 2 2 0 3 6 9 12 13 11 9 9 9 9 9 8 7 8 8 8 8 8 8 8 8 8 8 6 5 6 7 7 7 8 8 9 10 13 14 15 16 17 17 17 18 18 19 18 19 22 26 28 30 30 30 31 30 29 27 21 14 11 12 20 24 23 23 23 24 26 25 23 28 32 31 31 31
6 5 4 3 2 3 1 0 2 3 3 3 1 2 3 5 6 8 9 9 8 6 7 9 8 9 10 9 8 8 9 8 7 8 8 8 7 6 5 6 6 7 7 8 9 11 13 16 15 15 15 16 18 19 18 18 19 20 23 26 28 29 30 31 31 30 29 29 26 20 16 14 17 22 24 26 27 27 28 27 26 28 31 32 33 33
5 5 4 3 2 2 3 2 3 4 3 1 1 1 1 0 0 2 4 5 6 4 5 8 9 9 9 9 9 8 8 7 6 7 7 6 6 6 6 7 7 7 8 10 11 12 14 15 15 14 14 17 19 19 17 18 19 21 24 27 27 28 30 31 30 30 30 29 26 23 20 18 18 21 24 26 28 28 28 28 29 29 30 33 34 33
4 4 5 3 2 2 4 4 3 3 2 1 0 3 4 2 2 1 3 3 3 4 2 7 8 9 9 8 8 7 4 3 5 4 4 5 5 6 7 8 9 10 11 12 13 14 15 15 15 15 15 17 20 19 18 19 20 23 25 26 26 27 30 31 29 29 30 29 26 24 22 20 20 21 23 24 26 27 26 26 28 30 31 32 34 33
7 3 4 5 3 2 4 4 2 2 2 1 1 4 6 2 2 2 3 2 1 4 1 6 7 7 8 8 7 6 2 1 3 2 2 3 5 6 6 7 10 11 12 13 13 13 13 14 15 17 17 18 19 19 19 19 22 24 25 24 25 28 29 29 28 27 27 27 26 24 23 23 22 22 24 25 25 26 26 26 27 29 30 32 33 33
7 4 4 4 4 3 4 3 2 1 1 1 3 5 5 4 2 2 2 1 1 2 2 5 5 4 4 4 5 4 1 2 4 3 3 3 4 6 6 6 8 10 12 13 13 13 14 16 17 18 19 19 18 18 19 20 23 25 24 23 26 28 28 26 26 25 24 25 26 26 25 24 24 23 24 24 24 25 26 27 27 27 28 29 30 30
4 4 3 3 4 4 4 3 2 1 1 1 4 5 5 3 1 2 2 2 2 3 5 6 6 5 4 4 4 3 3 5 6 5 4 3 4 7 7 7 8 10 11 12 12 13 16 17 18 19 19 19 18 18 18 20 24 24 23 24 26 26 25 25 25 25 25 24 25 26 26 26 25 25 24 23 22 22 22 23 24 24 24 24 24 25
2 2 2 2 2 3 3 3 2 1 0 3 4 4 2 1 2 2 1 3 5 6 7 8 8 7 7 7 7 6 7 8 8 6 4 4 4 6 7 8 9 11 12 12 12 13 15 16 18 19 20 21 21 20 19 21 24 24 23 26 26 23 23 24 25 25 26 25 24 24 24 24 24 25 25 24 24 23 22 21 21 20 21 22 23 24
1 1 2 2 1 2 3 2 2 2 1 5 4 2 2 1 2 3 4 6 7 7 7 7 7 7 8 9 9 8 9 9 8 6 5 5 5 6 7 8 9 10 11 12 13 14 14 15 16 16 18 19 21 21 21 23 23 24 25 26 24 22 23 25 25 25 25 26 26 24 23 22 22 22 22 21 23 25 24 22 21 20 20 22 24 27
1 0 2 1 1 1 2 2 2 2 3 5 2 2 3 3 3 4 6 6 6 6 6 6 7 7 8 9 9 9 8 8 7 6 5 5 6 8 9 10 11 11 11 12 13 14 14 15 16 17 17 17 18 19 21 23 23 24 25 24 23 23 24 25 27 27 25 23 24 24 23 21 21 21 20 18 19 20 21 20 21 20 20 21 25 28
2 2 4 4 3 3 4 3 4 5 4 5 5 6 6 7 5 6 8 7 5 5 5 6 8 8 8 9 9 8 7 7 6 5 5 5 6 7 9 11 11 12 13 13 14 15 16 16 17 19 19 17 16 16 18 21 22 23 23 23 23 24 25 24 26 28 27 25 23 22 21 20 19 20 20 19 18 19 19 18 17 18 17 18 21 24
1 3 4 5 6 7 8 7 6 6 6 7 7 7 8 8 6 7 8 7 5 5 5 6 8 7 7 7 8 7 6 6 5 5 4 4 5 6 7 7 8 9 10 11 12 14 15 16 17 18 19 19 18 16 16 17 19 20 20 20 20 23 25 25 25 25 25 25 24 22 21 20 20 20 21 21 20 21 21 20 19 18 16 16 17 19
2 2 3 5 5 4 5 6 6 8 8 8 9 9 9 9 7 6 7 7 7 7 7 7 8 7 7 7 6 6 6 5 5 4 3 4 5 6 7 7 6 6 6 7 8 9 11 13 14 14 16 17 18 18 17 16 16 17 18 19 18 18 21 25 26 24 22 21 22 22 23 23 22 22 22 23 23 23 23 23 22 22 21 19 18 19
0 1 4 6 5 4 6 6 7 9 8 7 8 8 7 8 8 7 7 8 8 8 8 9 9 7 6 6 6 6 5 4 5 4 3 4 5 6 7 7 7 7 7 6 6 7 8 9 10 11 12 15 16 17 17 17 15 14 15 17 18 17 17 20 23 24 23 21 19 19 20 22 23 24 24 24 24 23 23 23 23 23 24 22 20 20
3 2 4 7 8 8 8 8 8 9 8 7 8 8 7 7 9 9 9 9 9 9 9 10 11 10 9 8 8 7 6 5 6 7 5 5 6 6 5 5 5 6 6 6 6 6 7 8 8 9 10 11 12 14 15 17 17 15 13 13 15 17 18 19 20 21 22 22 21 18 16 18 20 22 22 23 25 25 24 24 23 23 23 22 20 19
5 6 6 8 8 7 7 7 7 7 7 5 7 8 7 7 8 9 9 8 8 8 8 8 9 11 11 12 12 10 6 5 8 10 8 7 7 6 4 3 3 4 5 6 6 7 7 8 8 9 10 9 8 8 10 12 15 16 15 14 12 12 14 16 17 16 17 20 21 19 15 15 16 18 19 21 22 24 24 23 23 23 23 22 20 19
5 7 6 6 6 7 8 8 5 6 8 7 7 7 6 6 8 8 8 8 7 8 10 9 7 7 7 8 12 12 9 7 9 11 9 7 8 8 6 3 2 2 3 4 5 5 5 6 6 7 9 9 8 9 9 9 10 12 14 16 14 11 11 15 17 17 16 18 21 20 17 15 13 13 15 17 19 20 21 22 21 21 21 21 20 20
Wind_Direction
136 152 227 200 204 212 208 190 207 233 232 248 289 292 274 281 277 264 271 253 171 148 181 193 206 238 260 267 259 273 84 114 147 153 201 200 184 198 208 218 202 175 177 180 181 184 176 161 148 138 135 135 134 150 167 175 184 184 182 176 182 187 178 177 192 194 189 185 184 189 194 199 205 206 204 204 206 209 211 209 207 206 204 202 201 195
121 182 229 215 201 204 212 212 220 243 257 259 273 283 286 286 272 279 283 266 136 121 185 195 193 239 258 240 233 185 117 138 165 170 201 203 200 212 210 215 199 162 161 166 174 180 162 145 137 132 136 144 155 175 185 181 176 174 170 167 178 187 173 171 187 195 192 191 189 190 194 200 206 207 208 208 207 207 208 209 211 208 207 207 204 200
162 219 234 221 201 200 221 228 219 226 248 254 254 264 275 270 275 298 314 356 44 103 205 195 176 239 272 262 249 189 147 177 184 179 193 194 192 210 215 217 199 165 163 166 166 158 145 140 138 139 147 158 171 183 183 175 168 167 163 161 167 172 155 160 177 192 193 193 194 194 196 200 204 207 210 210 205 204 206 210 212 209 208 208 204 203
196 233 230 215 189 190 230 247 233 236 256 246 237 244 263 266 266 292 324 356 7 87 170 140 147 272 304 321 297 232 146 163 203 196 193 187 186 200 205 202 197 188 173 165 156 142 141 143 144 146 153 163 172 172 162 159 166 172 169 164 161 151 149 165 176 187 196 195 193 196 198 199 201 204 208 209 204 203 206 209 210 208 208 206 204 205
232 243 209 192 190 192 220 250 231 216 260 256 226 217 235 254 229 215 300 352 355 357 76 82 47 322 331 343 312 297 43 34 271 222 208 214 210 213 215 208 209 176 116 113 95 121 141 147 152 153 156 166 173 166 156 157 166 176 175 168 161 155 159 173 175 181 196 198 195 194 194 194 197 201 203 203 201 203 206 208 207 206 208 207 205 207
247 243 160 173 207 201 209 242 218 182 222 266 240 217 207 220 233 223 59 43 21 348 338 83 66 305 314 325 296 315 18 20 353 334 341 311 327 337 319 321 15 46 64 77 65 59 125 140 145 146 155 170 176 169 165 165 169 178 179 170 164 161 165 173 175 180 190 195 194 189 186 185 186 193 198 199 200 202 206 208 206 205 208 210 210 212
236 205 170 187 208 206 212 240 219 167 172 240 242 220 202 214 286 318 53 79 79 276 276 89 112 246 309 330 309 357 41 29 15 13 9 9 6 298 144 62 60 77 89 94 86 76 74 90 111 131 158 172 174 170 170 171 174 178 177 173 172 170 169 173 179 184 189 192 191 189 188 186 185 189 194 199 203 203 205 207 206 204 206 211 214 215
197 182 193 196 200 206 213 238 214 157 150 227 237 211 218 304 306 309 48 112 193 227 320 8 103 135 336 333 321 16 56 30 18 13 1 360 351 332 122 102 89 92 101 107 109 114 113 107 124 152 175 178 172 171 172 171 173 175 174 176 181 177 173 176 181 187 191 191 191 192 191 190 191 190 190 196 202 203 203 203 203 203 206 211 214 213
189 185 200 191 193 205 209 228 202 154 159 234 223 196 233 263 265 296 65 133 190 74 342 318 63 87 334 323 327 13 52 29 14 5 356 360 2 13 57 82 86 88 98 110 111 111 95 92 119 152 192 201 181 173 175 173 172 175 176 180 188 187 183 183 185 188 192 194 194 195 194 193 193 192 190 193 197 200 200 199 201 203 204 204 205 203
230 203 199 181 180 201 216 225 191 156 189 227 186 153 55 1 355 360 64 113 55 55 261 274 46 102 311 334 341 7 40 22 0 357 358 1 8 26 44 59 77 86 94 105 112 116 120 131 148 160 186 235 213 181 178 176 174 178 181 186 194 197 194 193 192 190 190 193 195 195 194 194 191 189 189 189 193 196 196 197 200 198 195 193 191 191
253 236 207 180 184 197 207 210 181 169 181 168 136 111 36 14 14 22 40 76 49 2 257 259 83 104 106 341 353 14 30 16 1 3 5 3 9 22 33 47 61 71 87 105 115 126 138 151 164 160 160 229 286 262 194 179 179 183 185 190 198 205 212 216 211 198 189 187 189 192 195 196 193 190 187 186 189 192 194 196 195 192 190 187 188 191
287 274 251 225 203 178 164 180 190 172 144 110 98 99 55 343 7 24 357 33 69 285 265 263 68 81 87 302 24 50 45 33 35 28 14 11 13 17 26 40 50 55 60 67 78 81 83 108 167 132 125 125 20 3 325 208 207 204 196 200 205 214 233 242 235 218 199 189 187 190 196 200 200 196 194 190 188 191 194 194 192 191 189 189 193 193
315 257 243 256 234 160 142 154 311 19 68 88 88 86 98 326 14 17 304 359 157 245 260 252 99 76 81 29 35 57 62 45 42 44 31 26 23 21 25 32 39 47 51 49 48 47 56 41 4 54 81 79 75 115 188 218 300 295 242 224 234 246 251 238 219 213 207 197 189 191 198 203 203 201 200 197 193 194 195 193 192 191 190 192 190 184
315 293 274 249 268 181 139 138 157 311 67 110 129 125 129 123 87 227 274 357 242 261 271 265 125 114 127 51 2 38 73 65 55 52 43 40 36 31 29 28 30 36 41 42 38 32 45 52 30 41 61 53 29 25 203 214 286 319 321 328 14 28 13 181 162 174 190 195 190 195 202 204 205 204 202 201 200 197 193 193 192 190 191 190 182 178
202 299 277 192 222 222 151 152 162 154 133 156 162 139 144 149 135 184 213 160 226 263 293 304 87 129 153 129 280 18 81 77 74 63 52 47 42 41 38 31 25 23 25 24 29 32 28 36 37 46 62 57 13 318 276 229 229 305 324 327 6 55 101 127 118 134 152 174 189 202 209 207 207 207 204 204 203 197 194 192 190 189 191 187 180 178
160 237 253 221 189 171 155 171 145 113 123 220 137 105 150 175 146 152 174 163 180 181 349 345 57 73 138 136 206 69 80 79 78 69 61 54 44 44 42 33 23 14 15 16 21 27 21 26 34 40 59 68 68 239 251 249 244 278 298 293 77 91 125 158 167 165 177 182 191 205 209 207 207 206 204 203 200 196 194 191 189 188 185 180 178 178
145 247 271 243 157 176 160 171 156 135 169 217 105 152 218 167 138 136 199 144 101 124 266 117 106 106 128 105 27 44 74 76 75 71 67 58 48 46 41 33 30 20 16 17 18 24 19 19 23 24 33 57 100 159 181 205 246 266 267 230 186 161 169 177 176 183 194 196 195 201 203 202 204 206 204 202 197 194 192 190 192 189 179 176 176 176
151 254 287 135 171 225 177 151 153 149 144 115 157 209 176 91 103 109 152 14 66 162 265 39 122 151 151 107 1 40 74 76 75 77 73 58 47 46 40 35 35 31 26 23 21 22 18 11 14 21 19 19 36 46 40 42 330 257 237 220 213 216 212 192 183 188 196 195 190 191 193 195 199 203 205 202 194 189 187 188 192 187 180 180 178 175
135 239 290 269 176 214 118 104 90 323 104 138 171 181 125 126 236 65 146 140 117 174 254 17 57 124 149 161 346 32 75 86 77 71 72 62 52 47 42 40 37 33 29 26 24 20 15 12 16 25 24 16 16 5 353 357 335 308 191 209 207 208 205 194 189 196 198 192 184 182 186 191 195 198 202 199 191 188 186 186 188 185 182 183 179 175
132 117 279 292 280 133 68 80 169 284 313 130 129 106 119 144 163 190 175 150 155 184 163 69 7 313 228 212 124 69 82 92 83 72 69 65 61 55 48 44 37 34 31 24 23 18 14 15 14 18 20 17 17 15 12 19 38 140 214 215 203 201 201 196 198 204 200 191 182 180 184 189 192 195 200 197 189 187 186 187 187 184 179 179 179 177
164 132 217 292 341 73 103 235 194 189 191 173 161 189 217 214 171 165 142 129 139 158 155 122 69 267 255 271 112 96 79 84 87 85 79 69 67 64 58 54 42 37 35 26 21 16 14 16 13 13 15 14 15 17 17 15 21 45 234 222 203 192 190 191 201 206 204 197 186 183 186 189 191 194 198 197 190 187 187 188 188 183 178 179 179 177
169 156 183 269 347 111 199 312 189 188 172 156 169 198 190 192 181 131 263 301 99 131 158 135 156 249 348 66 90 80 67 64 67 77 81 73 69 65 59 57 49 40 36 31 25 18 15 14 12 11 12 10 8 9 10 8 8 10 358 318 261 228 213 211 210 205 205 201 194 192 194 194 195 196 197 196 193 190 188 187 186 182 180 178 177 178
142 120 143 220 246 187 118 63 55 54 89 102 98 353 123 132 128 131 193 255 78 89 106 102 118 226 98 88 92 81 74 66 57 61 73 73 70 67 61 53 47 40 35 33 30 24 18 13 9 9 9 7 4 1 1 2 0 1 3 2 357 346 327 278 235 221 220 210 203 205 202 198 199 197 195 194 195 194 189 183 182 182 179 176 177 179
81 93 141 249 294 313 78 62 47 39 53 68 36 360 25 97 147 146 171 176 101 60 67 89 94 190 158 137 109 95 85 73 56 44 57 66 66 63 60 51 39 33 29 30 29 25 19 14 11 8 5 2 360 356 355 357 358 359 2 6 7 0 348 321 258 232 229 219 214 216 208 201 202 198 194 194 196 195 189 182 179 180 178 176 177 178
62 87 116 97 350 339 351 17 17 15 35 60 2 340 345 1 56 97 111 89 73 15 127 119 124 172 147 126 99 88 81 70 53 40 44 52 54 53 54 49 35 27 26 26 25 21 19 16 12 7 1 358 356 353 352 354 357 359 1 3 5 1 353 340 302 258 245 228 222 223 212 202 201 197 197 198 194 191 187 181 178 178 178 176 176 175
97 74 115 129 161 198 205 208 258 313 13 52 3 350 354 3 22 85 114 78 87 138 89 103 142 134 103 90 79 70 70 64 48 40 38 39 44 46 48 46 34 26 27 26 24 21 18 15 13 9 4 359 357 355 353 354 357 0 2 2 2 358 352 343 324 296 277 249 227 223 214 208 201 195 201 204 192 185 184 180 178 177 176 175 174 175
94 48 63 109 130 166 168 179 201 135 77 51 7 4 5 359 6 81 104 96 142 129 52 66 136 123 99 83 74 60 56 54 43 38 36 33 32 35 42 43 36 31 28 26 25 22 18 11 8 10 9 5 2 360 358 357 358 0 3 4 3 358 350 342 332 313 292 270 246 235 222 214 205 195 201 206 192 182 181 177 175 173 172 172 174 177
98 40 23 71 84 92 100 86 75 85 82 71 47 24 14 14 28 56 73 120 145 113 69 143 118 108 99 82 76 69 59 53 45 38 32 26 26 32 37 32 32 33 26 25 26 21 17 9 2 6 9 8 7 5 4 3 3 4 5 6 5 1 354 346 339 323 299 274 257 251 236 219 207 197 202 206 191 180 176 171 170 170 171 172 173 175
106 49 15 73 78 70 81 88 85 85 79 66 60 46 28 32 43 53 45 343 114 125 149 145 114 101 101 83 72 71 67 59 52 44 33 22 26 34 34 27 28 28 21 22 23 19 16 9 2 5 8 9 9 8 7 6 5 6 7 8 7 5 2 355 349 328 287 266 260 258 246 221 205 198 199 201 192 181 173 169 168 169 170 172 173 174
98 52 40 90 84 59 57 86 93 92 85 63 53 48 43 46 49 51 47 36 56 92 116 113 101 93 89 82 71 63 60 58 53 43 34 26 24 26 27 27 26 21 18 17 16 15 14 8 5 6 8 10 9 9 9 7 6 6 7 9 8 7 6 3 1 336 275 261 262 259 241 218 202 196 193 191 189 181 172 172 174 170 168 172 173 173
70 104 223 96 85 48 31 73 87 91 87 69 46 33 36 44 41 38 37 38 56 81 91 92 94 90 78 82 79 65 56 57 49 40 36 28 22 24 24 26 24 18 14 13 11 13 12 8 7 7 8 9 9 11 11 8 9 12 12 11 10 9 11 13 16 10 300 253 247 243 230 210 195 190 186 183 186 182 171 174 182 171 165 166 166 165
67 135 221 75 87 90 205 103 100 94 83 67 41 20 23 40 49 40 31 25 54 107 108 94 90 102 113 103 84 69 61 59 47 35 36 29 23 26 26 26 24 16 11 10 10 12 9 7 7 7 7 6 8 13 12 10 14 17 14 13 12 15 21 24 26 26 20 296 232 223 213 201 186 180 179 177 182 183 173 172 178 167 159 157 156 156
97 122 114 86 98 163 221 192 101 84 72 56 13 348 0 54 85 62 39 30 35 85 112 99 93 114 125 116 91 76 66 59 48 33 31 28 24 26 28 28 25 16 12 12 11 10 5 3 7 9 8 8 11 15 15 15 19 18 16 18 19 22 28 30 31 30 31 38 90 186 191 187 174 170 173 173 178 180 170 166 170 162 154 152 153 152
103 104 106 102 108 147 202 255 358 51 72 72 306 327 20 91 88 73 53 39 46 64 82 89 93 96 102 105 98 90 76 63 56 44 35 29 24 25 28 29 25 19 18 14 10 7 1 1 9 13 14 15 17 21 23 23 22 20 23 28 28 29 31 33 33 31 31 39 52 75 135 159 160 163 167 166 170 170 162 159 161 154 150 150 150 150
120 106 108 105 93 119 165 218 66 82 128 172 314 28 82 97 89 80 66 48 59 83 93 94 100 103 103 104 103 98 87 74 62 51 43 33 25 28 31 28 21 17 19 15 8 3 1 4 10 13 14 19 24 28 29 27 25 26 31 34 34 33 32 34 34 32 32 37 44 53 73 116 144 154 155 153 154 152 147 148 148 142 143 146 146 145
143 133 114 98 90 108 115 87 112 120 134 133 90 39 83 95 84 77 62 37 38 80 107 109 115 119 117 116 115 109 103 93 71 50 41 34 27 28 34 36 28 16 17 18 9 3 4 8 10 11 14 23 31 33 32 32 31 34 37 39 37 34 34 36 34 32 33 37 40 47 60 82 114 133 139 142 142 140 139 142 140 137 139 141 140 139
141 144 122 79 65 113 103 65 86 111 122 120 74 351 356 320 259 95 85 46 20 38 111 125 129 133 134 134 134 135 129 107 75 47 36 35 33 31 30 36 35 24 23 25 20 17 19 18 17 18 23 32 38 36 35 38 40 41 43 42 39 36 36 37 34 32 35 38 40 47 59 70 86 107 122 129 130 131 134 136 136 135 136 135 133 132
85 141 144 115 51 81 108 106 112 136 174 172 159 320 323 289 213 135 103 90 11 358 105 141 146 149 152 156 158 162 158 86 63 50 36 34 33 33 32 32 36 34 30 29 27 27 28 27 26 27 31 37 40 39 39 43 46 47 46 42 40 40 39 36 33 33 36 39 42 50 62 69 73 86 100 109 114 120 124 126 128 131 131 129 126 124
44 49 97 102 96 108 117 120 129 174 195 138 351 317 324 315 194 156 98 99 341 331 53 131 144 154 163 174 176 174 172 77 94 91 52 36 27 29 32 35 41 43 40 38 36 33 32 35 37 38 38 38 38 40 43 46 50 51 47 43 42 43 41 36 33 36 40 43 46 52 63 72 73 74 80 89 99 110 115 116 117 121 123 119 117 116
32 24 53 92 117 119 110 106 96 111 121 30 329 313 323 321 232 170 137 161 247 340 64 104 111 120 143 162 166 160 133 117 134 121 86 68 48 41 40 38 41 45 45 42 42 43 45 46 44 41 38 34 35 40 44 47 52 51 47 44 45 43 41 40 40 43 46 50 52 52 58 69 77 78 78 81 88 97 107 112 112 111 111 110 109 108
30 27 53 93 105 96 97 109 102 80 89 347 316 303 309 305 244 162 169 185 139 83 80 88 85 79 82 94 112 108 78 88 109 114 106 92 69 55 49 45 45 47 47 45 43 49 53 53 50 46 42 39 40 42 45 49 52 51 47 46 45 41 40 45 50 53 53 55 56 56 56 62 72 81 84 86 89 90 95 103 108 109 109 109 108 106
42 32 35 64 100 108 103 103 105 111 48 323 304 297 314 285 187 161 134 128 110 95 88 86 84 84 81 84 94 100 98 97 101 103 95 76 69 62 53 50 48 46 46 48 47 48 50 51 51 49 46 46 46 44 45 49 51 49 48 47 45 42 44 50 55 58 60 60 61 61 62 62 68 78 86 91 96 96 92 92 99 106 110 111 110 108
112 95 66 50 77 112 97 87 127 142 346 324 304 296 358 39 150 128 97 94 95 97 98 93 89 91 91 92 94 97 100 101 98 98 92 75 67 64 56 52 49 43 42 43 42 42 43 43 43 42 42 46 48 47 47 49 49 47 46 45 47 50 52 54 57 62 64 65 65 64 65 66 68 73 80 87 95 101 100 98 100 104 107 111 111 108
311 164 135 143 303 70 101 99 113 102 7 352 23 93 59 59 104 111 100 95 91 96 102 99 97 100 104 106 105 103 104 104 103 104 99 86 76 68 62 59 56 51 46 42 38 37 37 37 38 39 40 41 43 46 48 50 48 45 43 43 48 56 58 57 58 60 62 65 68 67 67 67 67 67 68 73 84 94 98 103 106 105 106 110 112 109
18 77 105 92 59 71 92 94 92 81 45 35 60 79 77 73 77 91 98 97 95 97 103 106 106 107 109 113 114 113 112 113 114 114 110 106 98 86 79 76 72 66 59 53 49 46 43 43 45 45 44 40 37 38 44 48 50 48 44 43 48 53 57 60 60 58 57 59 65 69 71 71 71 71 70 71 77 83 88 95 100 101 104 112 115 113
79 87 87 93 99 92 82 79 86 82 70 65 68 72 77 76 75 86 92 91 92 96 101 108 111 114 116 115 113 113 117 124 126 125 124 119 105 91 87 88 86 82 71 61 57 55 53 53 52 48 46 43 40 37 37 42 49 50 46 45 49 50 52 56 58 58 57 58 60 65 71 76 78 81 82 81 83 84 86 90 94 97 103 112 117 119
357 11 66 107 136 117 83 88 95 87 82 82 79 76 76 76 75 83 91 96 99 98 100 106 109 112 113 112 114 121 126 131 127 121 120 113 96 83 77 73 74 79 70 52 47 51 53 54 51 46 44 44 44 44 41 41 48 53 49 45 45 47 48 49 52 56 59 59 59 61 67 74 78 82 85 86 87 88 89 90 92 93 95 102 112 120
108 46 76 89 96 87 91 104 100 87 83 81 82 85 84 83 86 86 86 91 91 88 92 101 106 109 109 108 114 118 118 124 127 121 116 105 95 85 77 74 74 71 66 55 48 45 43 44 43 40 39 42 46 48 46 42 43 49 53 52 48 48 49 47 47 50 52 52 55 60 65 70 74 76 79 82 83 84 85 86 88 89 89 94 104 113
128 104 102 105 101 94 99 112 108 94 84 75 83 96 99 97 99 95 89 90 90 87 87 89 96 106 115 119 121 117 113 117 116 111 104 91 85 83 79 77 72 65 63 63 61 56 47 39 37 34 34 41 52 56 52 44 38 36 42 52 55 57 58 54 49 48 47 45 46 51 60 67 71 72 75 78 79 79 79 81 84 87 90 92 97 104
103 110 120 122 118 118 132 147 141 117 106 105 112 114 113 111 109 104 99 98 96 98 98 92 95 107 118 125 124 117 111 112 110 107 105 95 88 88 93 95 77 60 58 57 57 62 61 51 43 41 42 43 49 50 47 43 40 36 34 34 42 56 63 61 57 54 50 47 46 46 49 59 68 74 78 82 84 82 81 80 81 84 88 91 93 95
119 138 141 128 124 135 147 154 144 117 119 137 142 131 125 121 113 109 111 111 108 111 114 110 110 115 120 126 126 122 120 124 119 112 106 100 97 95 94 98 86 52 34 23 19 26 39 45 50 54 54 51 41 35 39 45 48 47 40 31 29 42 58 64 66 65 60 57 55 53 50 50 57 70 80 86 89 90 89 86 82 81 83 86 88 89